Flag for U.S.A. Weather past 2 weeks in Idaho Falls, Idaho, U.S.A.

Now
55 °F

Overcast.


Feels Like: 53 °F
Forecast: 41 / 68 °F
Wind: 8 mph from North

Location: Fanning Field

Current Time: Jul 27, 2015 at 8:13:33 PM

Latest Report: Jul 27, 2015 at 6:53 PM


Visibility: 10 mi

Pressure: 30.05 "Hg (25.33 "Hg at 1429m altitude)

Humidity: 67%

Dew point: 44 °F

Location of Idaho FallsLocation

Historic Weather in Idaho Falls — Graph

°F

Idaho Falls temperature yesterday

Maximum temperature yesterday: 88 °F (at 5:53 PM)
Minimum temperature yesterday: 50 °F (at 3:53 AM)
Average temperature yesterday: 70 °F

Past Weeks' High & Low Weather Summary

 TemperatureHumidityPressure
High88 °F (Jul 21, 4:53 PM)97% (Jul 16, 6:53 AM)30.21 "Hg (Jul 16, 6:53 AM)
Low44 °F (Jul 19, 5:53 AM)15% (Jul 25, 3:53 PM)29.67 "Hg (Jul 27, 2:53 AM)
Average66 °F55%29.94 "Hg
* Reported Jul 12 6:53 PM — Jul 27 6:53 PM, Idaho Falls, Weather by CustomWeather, © 2015

Note: Actual official high and low records may vary slightly from our data, if they occured in-between our weather recording intervals... More about our weather records

Advertising

Idaho Falls weather history for previous 24 hours

 ConditionsComfort  
Time TempWeatherWind HumidityBarometerVisibility
6:53 PM
Mon, Jul 27
55 °FOvercast.8 mph67%30.05 "Hg10 mi
5:53 PM59 °FScattered clouds.24 mph49%30.01 "Hg10 mi
4:53 PM66 °FBroken clouds.25 mph34%29.91 "Hg10 mi
3:53 PM66 °FScattered clouds.24 mph45%29.90 "Hg10 mi
2:53 PM60 °FBroken clouds.23 mph62%29.94 "Hg10 mi
1:53 PM51 °FBroken clouds.17 mph83%29.99 "Hg10 mi
12:53 PM50 °FLight rain. Cloudy.16 mph93%29.99 "Hg7 mi
11:53 AM53 °FRain. Fog.9 mph86%29.98 "Hg5 mi
10:53 AM59 °FMore clouds than sun.30 mph62%29.87 "Hg10 mi
9:53 AM66 °FPartly sunny.25 mph45%29.80 "Hg10 mi
8:53 AM61 °FScattered clouds.26 mph52%29.78 "Hg10 mi
7:53 AM58 °FPassing clouds.23 mph60%29.78 "Hg10 mi
6:53 AM57 °FClear.21 mph64%29.75 "Hg10 mi
5:53 AM57 °FClear.22 mph64%29.72 "Hg10 mi
4:53 AM58 °FClear.16 mph65%29.71 "Hg10 mi
3:53 AM57 °FClear.10 mph69%29.70 "Hg10 mi
2:53 AM62 °FClear.9 mph58%29.67 "Hg10 mi
1:53 AM61 °FClear.6 mph58%29.68 "Hg10 mi
12:53 AM57 °FClear.7 mph72%29.68 "Hg10 mi
11:53 PM
Sun, Jul 26
59 °FClear.No wind72%29.69 "Hg10 mi
10:53 PM69 °FSunny.No wind51%29.69 "Hg10 mi
9:53 PM63 °FSunny.3 mph60%29.72 "Hg10 mi
8:53 PM80 °FSunny.5 mph26%29.70 "Hg10 mi
Weather by CustomWeather, © 2015

See weather overviewHow to use our weather pages